Boulder Muni, Boulder, CO, CO

8:42 PM MDT on March 24, 2017 (GMT -0600)
Boulder Muni, Boulder, CO

Weather History for KBDU - August, 2014

Change the Weather History Date:

Sunday, August 17, 2014

  Actual Average Record
Temperature  
Mean Temperature 78 °F -  
Max Temperature 93 °F - 95 °F (2013)
Min Temperature 62 °F - 57 °F (2013)
Degree Days  
Heating Degree Days 0    
Month to date heating degree days  
Cooling Degree Days 12    
Month to date cooling degree days  
Growing Degree Days 28 (Base 50)    
Moisture  
Dew Point 41 °F    
Average Humidity 29    
Maximum Humidity 49    
Minimum Humidity 13    
Precipitation  
Precipitation 0.00 in - 0.00 in (2017)
Sea Level Pressure  
Sea Level Pressure 30.13 in    
Wind  
Wind Speed 5 mph (SW)    
Max Wind Speed 16 mph    
Max Gust Speed 25 mph    
Visibility 10 miles    
Events      
T = Trace of Precipitation, MM = Missing Value Source: NWS Daily Summary

Daily Weather History Graph

Daily Weather History Graph

Search for Another Location

Airport or City:

Trip Planner

Search our weather history database for the weather conditions in past years. The results will help you decide how hot, cold, wet, or windy it might be!

Date:

Astronomy

Aug. 17, 2014 Rise Set
Actual Time 6:14 AM MDT 7:54 PM MDT
Civil Twilight 5:45 AM MDT 8:23 PM MDT
Nautical Twilight 5:10 AM MDT 8:58 PM MDT
Astronomical Twilight 4:33 AM MDT 9:35 PM MDT
Moon No Moon Rise 2:02 PM MDT (8/17)
Length of Visible Light 14h 38m
Length of Day
13h 40m
Waning Gibbous, 48% of the Moon is Illuminated
Aug 17
Waning Gibbous
Aug 25
New
Sep 2
First Quarter
Sep 8
Full
Sep 15
Last Quarter

Hourly Weather History & Observations

Time (MDT) Temp. Dew Point Humidity Pressure Visibility Wind Dir Wind Speed Gust Speed Precip Events Conditions
12:15 AM 73.4 °F 35.6 °F 25% 30.13 in 10.0 mi SW 5.8 mph - N/A   Clear
12:35 AM 68.0 °F 37.4 °F 33% 30.13 in 10.0 mi Calm Calm - N/A   Clear
12:55 AM 66.2 °F 42.8 °F 43% 30.12 in 10.0 mi WSW 4.6 mph - N/A   Clear
1:15 AM 68.0 °F 42.8 °F 40% 30.12 in 10.0 mi Calm Calm - N/A   Clear
1:35 AM 68.0 °F 39.2 °F 35% 30.11 in 10.0 mi Calm Calm - N/A   Clear
1:55 AM 66.2 °F 41.0 °F 40% 30.11 in 10.0 mi NW 3.5 mph - N/A   Clear
2:15 AM 68.0 °F 37.4 °F 33% 30.11 in 10.0 mi Calm Calm - N/A   Clear
2:35 AM 62.6 °F 42.8 °F 48% 30.12 in 10.0 mi NNE 5.8 mph - N/A   Clear
2:55 AM 62.6 °F 42.8 °F 48% 30.13 in 10.0 mi Calm Calm - N/A   Clear
3:15 AM 64.4 °F 42.8 °F 45% 30.13 in 10.0 mi West 3.5 mph - N/A   Clear
3:35 AM 64.4 °F 42.8 °F 45% 30.14 in 10.0 mi WSW 4.6 mph - N/A   Clear
3:55 AM 66.2 °F 39.2 °F 37% 30.14 in 10.0 mi SSW 3.5 mph - N/A   Clear
4:15 AM 64.4 °F 44.6 °F 49% 30.14 in 10.0 mi SSW 4.6 mph - N/A   Clear
4:35 AM 64.4 °F 37.4 °F 37% 30.14 in 10.0 mi SW 4.6 mph - N/A   Clear
4:55 AM 64.4 °F 37.4 °F 37% 30.14 in 10.0 mi SW 6.9 mph - N/A   Clear
5:15 AM 69.8 °F 33.8 °F 27% 30.14 in 10.0 mi SW 8.1 mph - N/A   Clear
5:35 AM 73.4 °F 33.8 °F 23% 30.15 in 10.0 mi SW 3.5 mph - N/A   Clear
5:55 AM 64.4 °F 37.4 °F 37% 30.15 in 10.0 mi Calm Calm - N/A   Clear
6:15 AM 68.0 °F 42.8 °F 40% 30.15 in 10.0 mi WNW 4.6 mph - N/A   Clear
6:35 AM 68.0 °F 37.4 °F 33% 30.16 in 10.0 mi Calm Calm - N/A   Clear
6:55 AM 69.8 °F 35.6 °F 28% 30.16 in 10.0 mi West 3.5 mph - N/A   Clear
7:15 AM 73.4 °F 37.4 °F 27% 30.17 in 10.0 mi NW 3.5 mph - N/A   Clear
7:35 AM 73.4 °F 39.2 °F 29% 30.17 in 10.0 mi Calm Calm - N/A   Clear
7:55 AM 75.2 °F 41.0 °F 29% 30.17 in 10.0 mi SW 4.6 mph - N/A   Clear
8:15 AM 77.0 °F 42.8 °F 29% 30.17 in 10.0 mi South 4.6 mph - N/A   Clear
8:35 AM 78.8 °F 41.0 °F 26% 30.17 in 10.0 mi WNW 3.5 mph - N/A   Clear
8:55 AM 77.0 °F 50.0 °F 39% 30.18 in 10.0 mi NNE 6.9 mph - N/A   Clear
9:15 AM 77.0 °F 48.2 °F 36% 30.18 in 10.0 mi NE 6.9 mph - N/A   Clear
9:35 AM 78.8 °F 46.4 °F 32% 30.18 in 10.0 mi NE 3.5 mph - N/A   Clear
9:55 AM 80.6 °F 42.8 °F 26% 30.18 in 10.0 mi Calm Calm - N/A   Clear
10:15 AM 80.6 °F 44.6 °F 28% 30.18 in 10.0 mi Calm Calm - N/A   Clear
10:35 AM 80.6 °F 46.4 °F 30% 30.18 in 10.0 mi North 4.6 mph - N/A   Clear
10:55 AM 82.4 °F 44.6 °F 26% 30.17 in 10.0 mi NNE 6.9 mph - N/A   Clear
11:15 AM 82.4 °F 44.6 °F 26% 30.17 in 10.0 mi Calm Calm - N/A   Clear
11:35 AM 84.2 °F 46.4 °F 27% 30.17 in 10.0 mi NE 5.8 mph - N/A   Clear
11:55 AM 86.0 °F 50.0 °F 29% 30.17 in 10.0 mi NNW 5.8 mph - N/A   Clear
12:15 PM 86.0 °F 48.2 °F 27% 30.16 in 10.0 mi North 4.6 mph - N/A   Clear
12:35 PM 89.6 °F 44.6 °F 21% 30.14 in 7.0 mi East 3.5 mph - N/A   Clear
12:55 PM 89.6 °F 41.0 °F 18% 30.14 in 10.0 mi South 3.5 mph - N/A   Clear
1:15 PM 89.6 °F 37.4 °F 16% 30.13 in 10.0 mi NW 5.8 mph - N/A   Clear
1:36 PM 91.4 °F 35.6 °F 14% 30.12 in 10.0 mi West 11.5 mph 16.1 mph N/A   Clear
1:55 PM 91.4 °F 35.6 °F 14% 30.12 in 10.0 mi West 12.7 mph 25.3 mph N/A   Clear
2:15 PM 93.2 °F 35.6 °F 13% 30.11 in 10.0 mi SSW 9.2 mph 17.3 mph N/A   Clear
2:35 PM 87.8 °F 39.2 °F 18% 30.11 in 10.0 mi North 9.2 mph - N/A   Clear
2:55 PM 91.4 °F 41.0 °F 17% 30.10 in 10.0 mi NE 10.4 mph - N/A   Clear
3:15 PM 87.8 °F 39.2 °F 18% 30.10 in 10.0 mi NNE 16.1 mph 19.6 mph N/A   Clear
3:35 PM 89.6 °F 37.4 °F 16% 30.11 in 10.0 mi NNE 12.7 mph - N/A   Clear
4:15 PM 91.4 °F 37.4 °F 15% 30.11 in 10.0 mi NNE 8.1 mph - N/A   Clear
4:35 PM 89.6 °F 42.8 °F 20% 30.11 in 10.0 mi North 3.5 mph - N/A   Clear
4:55 PM 91.4 °F 41.0 °F 17% 30.10 in 10.0 mi SE 5.8 mph - N/A   Clear
5:15 PM 89.6 °F 42.8 °F 20% 30.10 in 10.0 mi SSE 6.9 mph - N/A   Clear
5:35 PM 86.0 °F 41.0 °F 20% 30.10 in 10.0 mi SSE 11.5 mph - N/A   Clear
5:55 PM 86.0 °F 41.0 °F 20% 30.10 in 10.0 mi SSE 6.9 mph 10.4 mph N/A   Clear
6:15 PM 86.0 °F 41.0 °F 20% 30.10 in 10.0 mi SSE 10.4 mph - N/A   Clear
6:35 PM 82.4 °F 42.8 °F 25% 30.10 in 10.0 mi SSE 9.2 mph 16.1 mph N/A   Clear
6:55 PM 82.4 °F 42.8 °F 25% 30.10 in 10.0 mi SSE 5.8 mph - N/A   Clear
7:15 PM 80.6 °F 44.6 °F 28% 30.10 in 10.0 mi SSE 5.8 mph - N/A   Clear
7:35 PM 78.8 °F 42.8 °F 28% 30.10 in 10.0 mi South 6.9 mph - N/A   Clear
7:55 PM 77.0 °F 42.8 °F 29% 30.10 in 10.0 mi South 6.9 mph - N/A   Clear
8:15 PM 77.0 °F 41.0 °F 28% 30.10 in 10.0 mi South 4.6 mph - N/A   Clear
8:35 PM 73.4 °F 42.8 °F 33% 30.09 in 10.0 mi SSE 4.6 mph - N/A   Clear
8:55 PM 73.4 °F 42.8 °F 33% 30.10 in 10.0 mi South 3.5 mph - N/A   Clear
9:15 PM 71.6 °F 42.8 °F 35% 30.10 in 10.0 mi West 5.8 mph - N/A   Clear
9:35 PM 71.6 °F 42.8 °F 35% 30.11 in 10.0 mi WSW 3.5 mph - N/A   Clear
9:55 PM 69.8 °F 42.8 °F 38% 30.11 in 10.0 mi Calm Calm - N/A   Clear
10:15 PM 73.4 °F 41.0 °F 31% 30.10 in 10.0 mi WSW 8.1 mph - N/A   Clear
10:35 PM 73.4 °F 39.2 °F 29% 30.09 in 10.0 mi WSW 6.9 mph - N/A   Clear
10:55 PM 75.2 °F 37.4 °F 25% 30.09 in 10.0 mi SW 6.9 mph - N/A   Clear
11:15 PM 73.4 °F 37.4 °F 27% 30.08 in 10.0 mi WSW 6.9 mph - N/A   Clear
11:35 PM 75.2 °F 35.6 °F 24% 30.08 in 10.0 mi SW 8.1 mph - N/A   Clear
11:55 PM 73.4 °F 37.4 °F 27% 30.09 in 10.0 mi North 4.6 mph - N/A   Clear